Location: Pine Mountain Observatory
(43.7910°N, 120.9377°W)
Time: 01:37:24
(UTC-08:00)

APEX - Visible Passes

Search period start: 23 November 2014 00:00
Search period end: 03 December 2014 00:00
Orbit: 341 x 1380 km, 69.9° (Epoch: 21 November)

Date Brightness Start Highest point End Pass type
(mag) Time Alt. Az. Time Alt. Az. Time Alt. Az.
25 Nov 5.6 18:54:24 10° NNW 18:54:49 13° NNW 18:54:49 13° NNW visible
26 Nov 4.1 18:44:40 10° NNW 18:46:51 40° NW 18:46:51 40° NW visible
27 Nov 3.5 18:34:51 10° NNW 18:38:15 67° WSW 18:40:47 23° SSE visible
28 Nov 3.7 18:24:59 10° NW 18:28:24 63° WSW 18:32:52 10° SSE visible
29 Nov 3.9 18:15:02 10° NW 18:18:29 58° WSW 18:23:00 10° SSE visible
30 Nov 4.1 18:05:01 10° NW 18:08:30 55° WSW 18:13:03 10° SSE visible
01 Dec 4.3 17:54:56 10° NW 17:58:27 52° WSW 18:03:03 10° S visible
02 Dec 4.5 17:44:47 10° NW 17:48:20 49° WSW 17:52:58 10° S visible
